CDT,Max TemperatureF,Mean TemperatureF,Min TemperatureF,Max Dew PointF,MeanDew PointF,Min DewpointF,Max Humidity, Mean Humidity, Min Humidity, Max Sea Level PressureIn, Mean Sea Level PressureIn, Min Sea Level PressureIn, Max VisibilityMiles, Mean VisibilityMiles, Min VisibilityMiles, Max Wind SpeedMPH, Mean Wind SpeedMPH, Max Gust SpeedMPH,PrecipitationIn, CloudCover, Events, WindDirDegrees
2014-6-1,83,74,65,68,66,64,97,87,56,30.04,29.89,29.77,10,9,1,14,6,21,1.12,5,Rain-Thunderstorm,175
2014-6-2,80,72,64,66,62,55,100,73,46,29.78,29.73,29.70,10,9,2,16,7,25,0.70,5,Rain-Thunderstorm,237
2014-6-3,76,67,58,56,50,45,82,57,34,29.99,29.91,29.79,10,10,10,14,9,28,0.00,1,,276
2014-6-4,77,66,54,57,55,51,94,69,40,29.95,29.88,29.83,10,10,10,9,3,16,0.00,5,Rain,123
2014-6-5,79,64,48,57,49,44,97,61,29,29.99,29.94,29.89,10,10,10,12,3,16,0.00,2,,189
2014-6-6,82,66,51,58,55,50,97,66,39,29.99,29.96,29.93,10,10,10,10,1,16,0.00,2,Rain,218
2014-6-7,78,64,51,62,57,50,97,84,56,30.03,29.96,29.92,10,10,7,14,2,25,0.03,4,Rain-Thunderstorm,340
2014-6-8,75,63,52,52,46,38,94,59,28,30.11,30.06,30.01,10,10,10,13,4,18,0.00,3,,40
2014-6-9,76,63,50,50,43,30,94,53,18,30.07,30.02,29.96,10,10,10,10,2,,0.00,1,,89
2014-6-10,77,62,49,53,48,37,96,64,28,29.99,29.95,29.88,10,10,10,10,2,17,0.00,0,,86
2014-6-11,82,66,50,54,49,45,96,59,28,29.87,29.81,29.75,10,10,10,12,3,18,0.00,0,,57
2014-6-12,71,63,53,56,48,41,88,58,36,29.94,29.81,29.69,10,10,10,20,6,25,0.00,5,,276
2014-6-13,74,58,42,47,39,34,81,49,26,30.05,30.00,29.94,10,10,10,15,6,26,0.00,0,,298
2014-6-14,77,62,48,54,46,40,88,53,26,30.04,29.96,29.82,10,10,7,18,4,25,0.06,2,Rain-Thunderstorm,143
2014-6-15,82,68,55,59,52,46,86,52,34,29.91,29.76,29.59,10,10,10,26,12,34,0.00,4,Rain-Thunderstorm,183
2014-6-16,87,66,46,64,54,46,100,64,28,30.00,29.91,29.77,10,10,3,16,3,22,1.20,1,Rain-Thunderstorm,166
2014-6-17,84,72,60,67,62,58,100,73,42,29.89,29.83,29.72,10,10,7,14,6,18,0.09,5,Rain-Thunderstorm,199
2014-6-18,79,72,64,70,64,61,100,77,57,30.01,29.92,29.80,10,10,2,30,7,36,1.47,5,Rain-Thunderstorm,100
2014-6-19,76,70,64,66,63,61,96,84,65,30.09,30.02,29.92,10,8,2,21,9,26,0.44,6,Rain-Thunderstorm,106
2014-6-20,84,75,65,67,64,58,97,78,41,30.00,29.96,29.91,10,8,3,6,1,,0.03,5,Rain,248
2014-6-21,83,71,57,66,62,54,94,73,37,29.93,29.90,29.87,10,10,10,9,2,,0.00,2,Rain,268
2014-6-22,82,66,51,66,61,50,97,84,52,29.93,29.89,29.83,10,10,4,9,2,,0.06,2,Rain-Thunderstorm,116
2014-6-23,79,69,59,65,63,58,98,76,53,29.89,29.86,29.83,10,9,0,9,2,,0.00,4,Fog,273
2014-6-24,83,72,62,64,60,53,95,68,36,29.95,29.90,29.87,10,10,7,10,2,,0.00,2,,295
2014-6-25,77,68,59,66,61,58,97,83,55,30.05,30.00,29.95,10,9,1,14,2,25,0.79,5,Rain-Thunderstorm,43
2014-6-26,80,66,54,64,61,53,97,78,55,30.08,30.03,29.97,10,8,2,10,3,,0.00,4,,116
2014-6-27,85,75,65,68,65,62,93,73,51,29.99,29.93,29.86,10,10,5,16,6,24,0.37,4,Rain,146
2014-6-28,85,76,67,69,67,64,95,72,54,29.93,29.88,29.78,10,10,2,18,10,26,0.43,4,Rain-Thunderstorm,161
2014-6-29,84,74,65,70,64,57,96,77,40,29.87,29.82,29.76,10,10,3,15,5,22,0.10,3,Rain-Thunderstorm,206
2014-6-30,79,70,62,69,64,59,96,83,61,29.79,29.70,29.49,10,10,7,28,4,37,0.21,2,Rain-Thunderstorm,217